Weather in Kantyshevo

Russia / Republic of Ingushetia     43°13′41″N   44°38′54″E
temp.,
°C
wind,
m/s
gust,
m/s
humid.,
%
clouds,
%
prec.,
mm/h
press.,
hPa
HPBL,
m
4 december, sat
sat400:00+3sw11531 0.0 101910
03:00+3sw225728 0.0 102012
06:00+3sw33555 0.0 102119
09:00+6ssw22435 0.0 102039
12:00+12wnw00275 0.0 1017208
15:00+11ene22340 0.0 101671
18:00+7e224622 0.0 101611
21:00+6ese22475 0.0 101411
5 december, sun
sun500:00+5se11455 0.0 101310
03:00+5sse114489 0.0 101210
06:00+5ssw1140100 0.0 101110
09:00+6sw2236100 0.0 101230
12:00+10wsw2331100 0.0 1011236
15:00+9wsw2341100 0.0 1013132
18:00+6ssw1148100 0.0 101612
21:00+6nne014687 0.0 101610
6 december, mon
mon600:00+5ssw11485 0.0 101710
03:00+5sse11475 0.0 101810
06:00+4se11494 0.0 102010
09:00+6e22474 0.0 102044
12:00+11e46445 0.0 1019512
15:00+10e34545 0.0 1020307
18:00+6ese11695 0.0 102210
21:00+6se116492 0.0 102210
7 december, tue
tue700:00+5s11580 0.0 102210
03:00+5se11580 0.0 102210
06:00+5ese11610 0.0 102210
09:00+7s11570 0.0 102211
12:00+11ene23430 0.0 1018300
15:00+11ene23511 0.0 1017259
18:00+6e21710 0.0 101711
21:00+6e21700 0.0 101510
8 december, wed
wed800:00+4ene11730 0.0 101310
03:00+4nnw11750 0.0 101210
06:00+3wnw11760 0.0 101010
09:00+5nw11660 0.0 101034
12:00+10nw0048100 0.0 1007209
15:00+10nnw22512 0.0 1006204
18:00+6sw33690 0.0 100837
21:00+5sw226659 0.0 100924